"datetime","# probes","# resolvers","can_ipv6","can_ipv6_prbs","can_tcp","can_tcp_prbs","can_tcp6","can_tcp6_prbs","does_ecs","does_ecs_prbs","does_flagday","does_flagday_prbs","does_rov4","does_rov4_prbs","does_rov6","does_rov6_prbs","does_qnamemin","doesnt_qnamemin","does_qnamemin_prbs","doesnt_qnamemin_prbs","does_nxdomain","doesnt_nxdomain","does_nxdomain_prbs","doesnt_nxdomain_prbs","has_ta_19036","hasnt_ta_19036","has_ta_19036_prbs","hasnt_ta_19036_prbs","has_ta_20326","hasnt_ta_20326","has_ta_20326_prbs","hasnt_ta_20326_prbs","can_rsamd5","cannot_rsamd5","broken_rsamd5","can_rsamd5_prbs","cannot_rsamd5_prbs","broken_rsamd5_prbs","can_dsa","cannot_dsa","broken_dsa","can_dsa_prbs","cannot_dsa_prbs","broken_dsa_prbs","can_rsasha1","cannot_rsasha1","broken_rsasha1","can_rsasha1_prbs","cannot_rsasha1_prbs","broken_rsasha1_prbs","can_dsansec3","cannot_dsansec3","broken_dsansec3","can_dsansec3_prbs","cannot_dsansec3_prbs","broken_dsansec3_prbs","can_rsansec3","cannot_rsansec3","broken_rsansec3","can_rsansec3_prbs","cannot_rsansec3_prbs","broken_rsansec3_prbs","can_rsasha256","cannot_rsasha256","broken_rsasha256","can_rsasha256_prbs","cannot_rsasha256_prbs","broken_rsasha256_prbs","can_rsasha512","cannot_rsasha512","broken_rsasha512","can_rsasha512_prbs","cannot_rsasha512_prbs","broken_rsasha512_prbs","can_eccgost","cannot_eccgost","broken_eccgost","can_eccgost_prbs","cannot_eccgost_prbs","broken_eccgost_prbs","can_ecdsa256","cannot_ecdsa256","broken_ecdsa256","can_ecdsa256_prbs","cannot_ecdsa256_prbs","broken_ecdsa256_prbs","can_ecdsa384","cannot_ecdsa384","broken_ecdsa384","can_ecdsa384_prbs","cannot_ecdsa384_prbs","broken_ecdsa384_prbs","can_ed25519","cannot_ed25519","broken_ed25519","can_ed25519_prbs","cannot_ed25519_prbs","broken_ed25519_prbs","can_ed448","cannot_ed448","broken_ed448","can_ed448_prbs","cannot_ed448_prbs","broken_ed448_prbs","can_gost","cannot_gost","broken_gost","can_gost_prbs","cannot_gost_prbs","broken_gost_prbs","can_sha384","cannot_sha384","broken_sha384","can_sha384_prbs","cannot_sha384_prbs","broken_sha384_prbs","is_internal","is_forwarding","is_external","is_internal_prbs","is_forwarding_prbs","is_external_prbs"
2017-06-20T23:59:59Z,186,336,285,157,336,186,268,150,0,18,0,0,0,0,0,0,2,334,5,186,0,336,0,186,0,0,0,0,0,0,0,0,10,326,0,12,181,18,314,21,0,175,42,4,314,21,0,175,32,3,313,22,0,175,43,4,312,22,1,174,33,4,312,22,1,174,33,4,312,22,1,174,33,4,306,28,1,168,51,5,312,22,1,173,34,4,313,22,0,174,34,3,0,336,0,0,186,4,0,336,0,0,186,4,306,28,1,168,41,5,309,22,0,172,34,3,265,29,42,149,31,54
2017-06-21T23:59:59Z,186,333,282,157,333,186,266,151,0,20,0,0,0,0,0,0,2,331,5,186,0,333,0,186,0,0,0,0,0,0,0,0,10,323,0,12,181,19,311,20,0,175,43,4,312,20,0,175,32,3,311,21,0,175,44,4,310,21,0,175,33,3,311,21,0,175,33,3,310,21,0,175,33,3,303,28,0,168,54,4,310,21,0,174,34,3,310,21,0,174,34,3,0,333,0,0,186,4,0,333,0,0,186,4,304,27,0,168,42,4,308,21,0,172,34,3,262,29,42,148,32,55
2017-06-22T23:59:59Z,186,336,283,156,336,186,266,149,1,20,0,0,0,0,0,0,3,333,6,185,0,336,0,186,0,0,0,0,0,0,0,0,9,327,0,11,181,18,314,21,0,174,45,3,314,21,0,174,34,2,312,23,0,173,47,3,313,22,0,174,35,2,313,22,0,174,35,2,313,22,0,174,35,2,307,28,0,168,55,3,313,22,0,173,36,2,313,22,0,173,36,2,0,336,0,0,186,3,0,336,0,0,186,3,308,27,0,169,42,4,311,22,0,171,35,3,262,30,44,147,34,56
2017-06-23T23:59:59Z,184,332,280,155,332,184,264,148,1,18,0,0,0,0,0,0,3,329,6,183,0,332,1,184,0,0,0,0,0,0,0,0,9,323,0,11,179,17,311,20,0,173,43,4,311,20,0,173,33,3,310,21,0,172,44,4,311,20,0,173,33,3,311,20,0,173,33,3,311,20,0,173,33,3,305,26,0,167,52,4,312,19,0,172,33,3,312,19,0,172,33,3,0,332,0,0,184,4,0,332,0,0,184,4,307,24,0,168,39,5,309,20,0,170,33,4,259,29,44,146,34,54
2017-06-24T23:59:59Z,178,325,274,150,325,178,258,144,0,18,0,0,0,0,0,0,3,322,6,177,0,325,0,178,0,0,0,0,0,0,0,0,9,316,0,11,174,16,303,21,0,167,42,3,303,21,0,167,32,2,303,21,0,167,42,3,303,21,0,167,32,2,303,21,0,167,32,2,303,21,0,167,32,2,298,26,0,162,50,3,304,20,0,166,32,2,304,20,0,166,32,2,0,325,0,0,178,3,0,325,0,0,178,3,298,26,0,162,39,4,301,21,0,164,32,3,253,28,44,142,31,53
2017-06-25T23:59:59Z,181,331,279,152,331,181,262,145,1,19,0,0,0,0,0,0,5,326,7,179,0,331,0,181,0,0,0,0,0,0,0,0,9,322,0,11,177,15,308,22,0,168,43,3,308,22,0,168,34,2,307,23,0,168,44,3,307,22,1,168,34,3,307,23,0,168,35,2,307,23,0,168,35,2,301,29,0,162,53,3,307,23,0,167,36,2,307,23,0,167,36,2,0,331,0,0,181,3,0,331,0,0,181,3,302,28,0,163,42,4,306,22,0,165,34,3,258,29,44,144,33,52
2017-06-26T23:59:59Z,184,339,288,156,339,184,271,149,0,18,0,0,0,0,0,0,5,334,7,182,0,339,0,184,0,0,0,0,0,0,0,0,10,329,0,12,180,16,316,22,0,172,43,3,316,22,0,172,33,2,316,22,0,172,43,3,316,22,0,172,33,2,316,22,0,172,33,2,316,22,0,172,33,2,309,29,0,166,53,3,315,23,0,171,35,2,315,23,0,171,35,2,0,339,0,0,184,3,0,339,0,0,184,3,309,28,1,166,41,5,313,23,0,169,34,3,266,31,42,147,34,52
2017-06-27T23:59:59Z,182,334,281,153,334,182,265,147,0,15,0,0,0,0,0,0,3,331,6,181,0,334,0,182,0,0,0,0,0,0,0,0,10,323,1,12,177,15,314,19,0,170,40,3,315,18,0,171,30,2,314,19,0,171,40,3,314,19,0,171,31,2,314,19,0,171,31,2,314,19,0,171,31,2,307,26,0,165,50,3,314,19,0,170,32,2,314,19,0,170,32,2,0,334,0,0,182,3,0,334,0,0,182,3,307,26,0,165,40,4,312,19,0,168,31,3,262,28,44,145,32,51
2017-06-28T23:59:59Z,185,338,284,155,338,185,267,148,1,18,0,0,0,0,0,0,3,335,6,184,0,338,0,185,0,0,0,0,0,0,0,0,10,327,1,13,180,17,316,21,0,173,43,4,315,21,1,173,33,4,314,23,0,172,45,4,314,22,1,173,34,4,315,22,0,173,34,3,315,22,0,173,34,3,306,30,1,164,55,5,314,22,1,172,35,4,314,22,1,172,35,4,1,337,0,1,185,4,0,338,0,0,185,4,307,29,1,165,43,6,314,21,0,170,33,4,264,30,44,147,34,53
2017-06-29T23:59:59Z,182,335,282,153,335,182,265,147,0,16,0,0,0,0,0,0,4,331,7,181,0,335,0,182,0,0,0,0,0,0,0,0,10,325,0,13,178,15,313,21,0,171,42,3,313,21,0,171,32,2,314,20,0,171,41,3,314,20,0,171,31,2,314,20,0,171,31,2,314,20,0,171,31,2,306,28,0,163,51,3,313,21,0,170,33,2,313,21,0,170,33,2,0,335,0,0,182,3,0,335,0,0,182,3,305,29,0,163,41,4,311,21,0,168,32,3,262,29,44,145,32,53
2017-06-30T23:59:59Z,182,336,282,152,336,182,265,146,1,17,0,0,0,0,0,0,4,332,7,181,0,336,0,182,0,0,0,0,0,0,0,0,10,326,0,12,178,15,315,20,0,171,41,3,315,20,0,171,31,2,314,21,0,170,42,3,315,20,0,171,31,2,315,20,0,171,31,2,315,20,0,171,31,3,306,29,0,163,52,4,316,19,0,170,31,2,316,19,0,170,31,2,0,336,0,0,182,3,0,336,0,0,182,3,307,28,0,164,40,4,314,19,0,168,30,3,260,30,46,144,33,52
2017-07-01T23:59:59Z,180,330,276,150,330,180,260,145,0,15,0,0,0,0,0,0,3,327,6,179,0,330,0,180,0,0,0,0,0,0,0,0,10,320,0,12,176,14,310,19,0,168,40,3,310,19,0,168,31,2,309,20,0,168,41,3,309,20,0,168,32,2,309,20,0,168,32,2,309,20,0,168,32,2,301,28,0,161,51,4,310,19,0,167,32,2,310,19,0,167,32,2,0,330,0,0,180,3,0,330,0,0,180,3,301,28,0,161,41,4,307,20,0,165,32,3,255,29,46,142,33,51
2017-07-02T23:59:59Z,181,336,282,152,336,181,264,145,0,17,0,0,0,0,0,0,5,331,7,179,0,336,0,181,0,0,0,0,0,0,0,0,10,326,0,12,177,15,314,21,0,170,43,3,314,21,0,170,33,2,314,21,0,170,43,3,314,21,0,170,33,2,314,21,0,170,33,2,314,21,0,170,33,2,305,30,0,162,53,3,314,21,0,169,34,2,314,21,0,169,34,2,0,336,0,0,181,3,0,336,0,0,181,3,305,30,0,162,42,4,312,21,0,167,33,3,261,29,46,144,33,52
2017-07-03T23:59:59Z,185,344,288,156,344,185,272,149,0,16,0,0,0,0,0,0,5,339,7,183,0,344,0,185,0,0,0,0,0,0,0,0,10,333,1,13,180,16,319,24,0,172,44,3,320,23,0,173,33,3,320,23,0,173,43,3,320,23,0,173,33,3,320,23,0,173,33,3,320,23,0,173,33,3,311,32,0,164,53,3,320,23,0,172,34,3,320,23,0,172,34,3,0,344,0,0,185,3,0,344,0,0,185,3,310,33,0,164,43,4,317,24,0,170,34,4,270,28,46,148,32,53
2017-07-04T23:59:59Z,187,351,293,158,351,187,274,150,0,16,0,0,0,0,0,0,6,345,7,185,0,351,0,187,0,0,0,0,0,0,0,0,10,341,0,13,183,15,326,24,0,175,43,3,326,24,0,175,34,2,325,25,0,175,44,3,324,25,1,174,35,3,325,25,0,175,35,2,325,25,0,175,35,2,315,35,0,165,55,3,324,25,1,173,36,3,324,25,1,173,36,3,0,350,1,0,186,4,0,351,0,0,187,4,315,35,0,165,45,4,323,25,0,172,35,3,273,29,49,149,33,54
2017-07-05T23:59:59Z,187,351,293,158,351,187,273,149,0,17,0,0,0,0,0,0,5,346,6,185,0,351,0,187,0,0,0,0,0,0,0,0,10,341,0,13,183,16,326,24,0,176,44,3,326,24,0,176,33,2,326,24,0,176,44,3,326,24,0,176,33,2,326,24,0,176,33,2,326,24,0,176,33,2,316,34,0,166,55,3,327,23,0,175,33,2,327,23,0,175,33,2,0,351,0,0,187,3,0,351,0,0,187,3,316,34,0,166,43,4,324,24,0,173,33,3,273,29,49,149,32,55
2017-07-06T23:59:59Z,188,351,292,158,351,188,272,149,0,16,0,0,0,0,0,0,6,345,7,186,0,350,0,187,0,0,0,0,0,0,0,0,10,341,0,13,184,15,325,24,0,175,43,3,325,24,0,175,33,2,324,25,0,175,44,3,324,25,0,175,34,2,324,25,0,175,34,2,324,25,0,175,34,2,314,35,0,165,55,3,325,24,0,174,34,2,325,24,0,174,34,2,0,351,0,0,188,3,0,351,0,0,188,3,314,35,0,165,44,4,322,25,0,172,34,3,272,30,49,149,33,54
2017-07-07T23:59:59Z,186,348,290,157,348,186,271,149,0,17,0,0,0,0,0,0,6,342,7,184,0,347,0,185,0,0,0,0,0,0,0,0,10,338,0,12,182,16,324,22,0,174,42,3,324,22,0,174,31,2,324,22,0,174,42,3,324,22,0,174,31,2,324,22,0,174,31,2,324,22,0,174,31,2,314,32,0,165,53,3,324,22,0,173,32,2,324,22,0,173,32,2,0,348,0,0,186,3,0,348,0,0,186,3,313,33,0,165,42,4,321,23,0,171,32,3,270,29,49,148,32,54
2017-07-08T23:59:59Z,187,348,290,158,348,187,272,150,0,16,0,0,0,0,0,0,5,343,6,185,0,347,0,186,0,0,0,0,0,0,0,0,10,338,0,13,183,15,322,24,0,174,44,3,322,24,0,174,34,2,323,23,0,174,43,3,323,23,0,174,33,2,323,23,0,174,33,2,323,23,0,174,33,2,313,33,0,164,54,3,322,24,0,173,35,2,322,24,0,173,35,2,0,348,0,0,187,3,0,348,0,0,187,3,313,33,0,164,43,4,321,23,0,171,33,3,273,28,47,150,32,53
2017-07-09T23:59:59Z,189,359,300,160,359,189,281,152,0,18,0,0,0,0,0,0,5,354,6,187,0,358,0,189,0,0,0,0,0,0,0,0,10,349,0,13,185,16,334,23,0,178,46,2,334,23,0,178,34,2,335,22,0,179,45,2,334,23,0,178,34,2,334,23,0,178,34,2,334,23,0,178,34,2,324,33,0,168,57,2,335,22,0,177,34,2,335,22,0,177,34,2,0,359,0,0,189,2,0,359,0,0,189,2,324,33,0,168,44,3,332,23,0,175,34,3,283,29,47,151,33,55
2017-07-10T23:59:59Z,190,358,300,161,358,190,282,153,0,16,0,0,0,0,0,0,5,353,6,188,0,358,1,190,0,0,0,0,0,0,0,0,10,348,0,13,186,14,333,24,0,178,45,2,333,24,0,178,35,2,333,24,0,178,46,2,333,24,0,178,36,2,334,23,0,178,36,2,333,24,0,178,36,2,323,34,0,168,57,2,333,24,0,177,36,2,333,24,0,177,36,2,0,358,0,0,190,2,0,358,0,0,190,2,323,34,0,168,45,4,331,24,0,175,35,4,280,31,47,151,36,53
2017-07-11T23:59:59Z,191,358,300,162,358,191,282,154,0,18,0,0,0,0,0,0,5,353,6,189,0,358,0,191,0,0,0,0,0,0,0,0,10,348,0,12,187,15,334,23,0,179,46,2,334,23,0,179,35,2,334,23,0,179,45,2,335,22,0,179,34,2,334,23,0,179,34,2,334,23,0,179,34,2,324,33,0,169,55,2,335,22,0,178,35,2,335,22,0,178,35,2,0,358,0,0,191,2,0,358,0,0,191,2,324,33,0,169,44,3,332,23,0,176,36,3,282,29,47,153,34,53
2017-07-12T23:59:59Z,189,353,295,160,353,189,276,152,0,18,0,0,0,0,0,0,5,348,6,187,0,353,0,189,0,0,0,0,0,0,0,0,10,343,0,11,185,16,328,24,0,176,47,2,328,24,0,176,35,2,328,24,0,176,47,2,328,24,0,176,35,2,328,24,0,176,35,2,328,24,0,176,35,2,318,34,0,167,57,2,329,23,0,175,35,2,329,23,0,175,35,2,0,353,0,0,189,2,0,353,0,0,189,2,318,34,0,167,44,3,326,24,0,173,35,3,276,30,47,150,34,53
2017-07-13T23:59:59Z,188,356,299,160,356,188,280,152,0,17,0,0,0,0,0,0,6,350,7,186,0,356,0,188,0,0,0,0,0,0,0,0,10,346,0,11,185,15,332,23,0,176,46,2,332,23,0,176,35,2,332,23,0,176,46,2,332,23,0,176,35,2,332,23,0,176,35,2,332,23,0,176,35,2,322,33,0,166,56,2,333,22,0,175,36,2,332,23,0,175,36,2,0,356,0,0,188,2,0,356,0,0,188,2,322,33,0,166,44,3,330,23,0,173,35,3,280,29,47,150,34,53
2017-07-14T23:59:59Z,191,364,306,162,364,191,287,154,0,18,0,0,0,0,0,0,6,358,7,189,0,364,0,191,0,0,0,0,0,0,0,0,9,355,0,10,188,16,340,23,0,178,46,2,340,23,0,178,34,2,340,23,0,178,46,2,340,23,0,178,34,2,340,23,0,178,34,2,340,23,0,178,34,2,330,33,0,169,56,2,340,23,0,177,35,2,341,22,0,177,34,2,0,364,0,0,191,2,0,364,0,0,191,2,330,33,0,169,43,3,338,23,0,175,34,3,287,30,47,152,35,52
2017-07-15T23:59:59Z,190,362,305,161,362,190,286,153,0,18,0,0,0,0,0,0,5,357,6,188,0,362,0,190,0,0,0,0,0,0,0,0,9,353,0,10,187,16,337,24,0,178,45,2,337,24,0,178,33,2,337,24,0,178,45,2,337,24,0,178,33,2,337,24,0,178,33,2,337,24,0,178,33,2,327,34,0,169,55,2,338,23,0,177,33,2,338,23,0,177,33,2,0,362,0,0,190,2,0,362,0,0,190,2,328,33,0,169,41,3,336,23,0,175,32,3,286,29,47,152,33,51
2017-07-16T23:59:59Z,191,365,307,161,365,191,288,153,0,17,0,0,0,0,0,0,5,360,6,189,0,365,0,191,0,0,0,0,0,0,0,0,9,356,0,10,188,15,340,24,0,178,44,2,340,24,0,178,33,2,339,25,0,178,45,2,339,25,0,178,34,2,339,25,0,178,34,2,339,25,0,178,34,2,329,35,0,169,55,2,340,24,0,177,34,2,340,24,0,177,34,2,0,365,0,0,191,2,0,365,0,0,191,2,329,35,0,169,43,3,337,25,0,175,34,3,289,29,47,153,33,50
2017-07-17T23:59:59Z,190,364,316,165,364,190,297,157,0,16,0,0,0,0,0,0,5,359,6,188,0,364,0,190,0,0,0,0,0,0,0,0,9,355,0,11,187,14,338,25,0,178,42,2,338,25,0,178,32,2,337,26,0,178,43,2,337,26,0,178,33,2,337,26,0,178,33,2,337,26,0,178,33,2,327,36,0,168,54,2,337,26,0,177,34,2,337,26,0,177,34,2,0,364,0,0,190,2,0,364,0,0,190,2,327,36,0,168,43,3,335,26,0,175,33,3,287,30,47,153,33,49
2017-07-18T23:59:59Z,192,366,319,168,366,192,291,156,0,19,0,0,0,0,0,0,5,361,6,190,0,366,0,192,0,0,0,0,0,0,0,0,10,356,0,12,188,17,338,27,0,179,48,2,338,27,0,179,35,2,338,27,0,179,48,3,338,27,0,179,35,2,338,27,0,179,35,2,338,27,0,179,35,2,328,37,0,169,58,2,339,26,0,178,35,2,339,26,0,178,35,2,0,366,0,0,192,2,0,366,0,0,192,2,327,37,1,169,44,4,337,26,0,176,34,3,290,31,45,154,34,52
2017-07-19T23:59:59Z,191,363,336,180,363,191,254,155,0,19,0,0,0,0,0,0,5,358,6,189,0,362,1,191,0,0,0,0,0,0,0,0,10,353,0,12,187,18,338,24,0,179,45,3,338,24,0,179,32,3,337,25,0,179,46,3,337,25,0,179,33,3,337,25,0,179,33,3,337,25,0,179,33,4,327,35,0,169,56,3,337,25,0,178,34,3,337,25,0,178,34,4,0,363,0,0,191,4,0,363,0,0,191,4,327,35,0,169,42,4,335,25,0,176,33,4,289,29,45,154,33,51
2017-07-20T23:59:59Z,191,363,335,180,363,191,209,137,0,18,0,0,0,0,0,0,5,358,6,189,0,363,0,191,0,0,0,0,0,0,0,0,10,353,0,12,187,16,339,23,0,179,45,2,339,23,0,179,33,2,338,24,0,179,46,2,338,24,0,179,34,2,338,24,0,179,34,2,338,24,0,179,34,2,328,34,0,169,56,2,338,24,0,178,35,2,338,24,0,178,35,2,0,363,0,0,191,2,0,363,0,0,191,2,329,33,0,169,42,3,336,24,0,176,34,3,288,30,45,153,36,50
2017-07-21T23:59:59Z,192,365,336,181,365,192,211,138,0,18,0,0,0,0,0,0,5,360,7,190,0,365,0,192,0,0,0,0,0,0,0,0,11,354,0,12,188,16,338,26,0,180,45,2,338,26,0,180,33,2,339,25,0,180,44,2,339,25,0,180,32,2,339,25,0,180,32,2,339,25,0,180,32,2,329,35,0,170,54,2,338,26,0,179,34,2,338,26,0,179,34,2,0,365,0,0,192,2,0,365,0,0,192,2,328,36,0,170,42,3,336,26,0,177,33,3,291,29,45,155,32,50
2017-07-22T23:59:59Z,190,361,332,178,361,190,211,134,0,16,0,0,0,0,0,0,6,355,7,188,0,361,0,190,0,0,0,0,0,0,0,0,10,351,0,12,186,14,333,27,0,177,43,2,333,27,0,177,33,2,333,27,0,177,43,2,333,27,0,177,33,2,333,27,0,177,33,2,334,26,0,177,33,2,323,37,0,167,53,2,332,28,0,176,35,2,332,28,0,176,35,2,0,361,0,0,190,2,0,361,0,0,190,2,322,38,0,167,43,3,330,28,0,174,34,3,285,31,45,152,33,48
2017-07-23T23:59:59Z,189,362,334,178,362,189,211,135,0,18,0,0,0,0,0,0,5,357,6,187,0,362,0,189,0,0,0,0,0,0,0,0,10,352,0,11,185,15,338,23,0,177,42,2,338,23,0,177,31,2,337,24,0,177,43,2,337,24,0,177,32,2,337,24,0,177,32,2,337,24,0,177,32,2,327,34,0,168,53,2,337,24,0,176,33,2,337,24,0,176,33,2,0,362,0,0,189,2,0,362,0,0,189,2,327,34,0,168,41,3,335,24,0,174,32,3,286,28,48,152,32,49
2017-07-24T23:59:59Z,193,369,337,181,369,193,210,139,0,18,0,0,0,0,0,0,5,364,6,191,0,369,0,193,0,0,0,0,0,0,0,0,10,359,0,11,189,16,344,24,0,180,44,2,344,24,0,180,32,2,343,25,0,180,45,2,343,25,0,180,33,2,343,25,0,180,33,2,343,25,0,180,33,2,332,36,0,171,55,2,344,24,0,179,33,2,344,24,0,179,33,2,0,369,0,0,193,2,0,369,0,0,193,2,332,36,0,171,46,4,342,24,0,177,32,3,293,28,48,156,32,50
2017-07-25T23:59:59Z,194,370,339,182,370,194,216,139,0,18,0,0,0,0,0,0,5,365,6,192,0,370,0,194,0,0,0,0,0,0,0,0,11,359,0,12,190,16,344,25,0,182,45,2,344,25,0,182,33,2,344,25,0,182,45,2,344,25,0,182,33,2,344,25,0,182,33,2,344,25,0,182,33,2,333,36,0,172,55,2,344,25,0,181,34,2,344,25,0,181,34,2,0,370,0,0,194,2,0,370,0,0,194,2,333,36,0,172,42,3,343,24,0,179,32,3,294,28,48,157,32,51
2017-07-26T23:59:59Z,195,374,342,183,374,195,215,140,0,20,0,0,0,0,0,0,5,369,6,193,0,374,0,195,0,0,0,0,0,0,0,0,10,364,0,11,191,18,348,25,0,182,46,2,348,25,0,182,32,2,347,26,0,182,47,2,347,26,0,182,33,2,347,26,0,182,33,2,347,26,0,182,33,2,336,37,0,173,57,2,347,26,0,181,34,2,347,26,0,181,34,2,0,374,0,0,195,2,0,374,0,0,195,2,336,37,0,173,42,3,345,26,0,179,33,3,296,30,48,157,33,52
2017-07-27T23:59:59Z,192,368,338,181,368,192,221,144,0,19,0,0,0,0,0,0,5,363,6,190,0,368,0,192,0,0,0,0,0,0,0,0,10,358,0,12,188,17,343,24,0,180,45,2,343,24,0,180,32,2,343,24,0,180,46,2,343,24,0,180,33,2,343,24,0,180,33,2,343,24,0,180,33,2,331,36,0,170,56,2,342,25,0,179,34,2,342,25,0,179,34,2,0,368,0,0,192,2,0,368,0,0,192,2,331,36,0,170,42,3,340,25,0,177,33,3,289,31,48,153,34,52
2017-07-28T23:59:59Z,188,358,328,176,358,188,208,134,0,18,0,0,0,0,0,0,5,353,6,186,0,358,0,188,0,0,0,0,0,0,0,0,10,348,0,11,184,16,335,22,0,176,43,2,335,22,0,176,30,2,335,22,0,176,43,2,335,22,0,176,30,2,335,22,0,176,30,2,335,22,0,176,30,2,324,33,0,167,53,2,334,23,0,175,32,2,334,23,0,175,32,2,0,358,0,0,188,2,0,358,0,0,188,2,323,34,0,167,40,3,333,22,0,173,30,3,281,29,48,150,33,50
2017-07-29T23:59:59Z,188,359,330,177,359,188,209,133,0,17,0,0,0,0,0,0,8,351,8,185,0,359,0,188,0,0,0,0,0,0,0,0,10,349,0,11,184,15,336,22,0,176,42,2,336,22,0,176,31,2,335,23,0,176,43,2,335,23,0,176,32,2,335,23,0,176,32,2,335,23,0,176,32,2,322,36,0,166,54,2,336,22,0,175,32,2,336,22,0,175,32,2,0,359,0,0,188,2,0,359,0,0,188,2,322,36,0,166,42,3,333,23,0,173,32,3,282,29,48,150,34,49
2017-07-30T23:59:59Z,186,350,319,174,350,186,200,129,0,18,0,0,0,0,0,0,6,344,6,183,0,350,0,186,0,0,0,0,0,0,0,0,10,340,0,12,182,15,329,20,0,174,42,2,329,20,0,174,30,2,329,20,0,174,42,2,329,20,0,174,30,2,329,20,0,174,30,2,329,20,0,174,30,2,316,33,0,164,53,2,328,21,0,173,32,2,328,21,0,173,32,2,0,350,0,0,186,2,0,350,0,0,186,2,315,34,0,164,41,3,326,21,0,171,31,3,276,28,46,150,34,48
2017-07-31T23:59:59Z,185,353,321,172,353,185,203,134,0,19,0,0,0,0,0,0,7,346,7,182,0,353,0,185,0,0,0,0,0,0,0,0,11,342,0,12,181,16,330,22,0,173,43,2,330,22,0,173,30,2,329,23,0,173,44,2,329,23,0,173,31,2,329,23,0,173,31,2,330,22,0,173,31,2,316,36,0,162,55,2,330,22,0,172,31,2,329,23,0,172,32,2,0,353,0,0,185,2,0,353,0,0,185,2,316,36,0,162,41,3,327,23,0,170,31,3,281,28,44,150,32,49
2017-08-01T23:59:59Z,187,354,322,175,354,187,209,137,0,19,0,0,0,0,0,0,6,348,6,184,0,354,1,187,0,0,0,0,0,0,0,0,10,344,0,13,183,17,330,23,0,175,44,3,330,23,0,175,31,3,329,24,0,175,45,3,329,24,0,175,32,3,330,23,0,175,32,3,330,23,0,175,32,3,316,37,0,163,56,3,329,24,0,173,33,3,329,24,0,173,33,3,0,354,0,0,187,3,0,354,0,0,187,3,316,37,0,163,42,4,328,23,0,171,31,4,281,29,44,150,34,50
2017-08-02T23:59:59Z,183,350,318,171,350,183,205,131,0,19,0,0,0,0,0,0,6,344,6,180,0,350,0,183,0,0,0,0,0,0,0,0,10,340,0,12,179,16,330,19,0,171,43,2,330,19,0,171,30,2,330,19,0,171,43,2,330,19,0,171,30,2,330,19,0,171,30,2,330,19,0,171,30,2,317,32,0,161,54,2,330,19,0,170,31,2,330,19,0,170,31,2,0,350,0,0,183,2,0,350,0,0,183,2,316,33,0,161,41,3,327,20,0,168,31,3,279,27,44,148,33,48
2017-08-03T23:59:59Z,182,346,314,169,346,182,206,133,0,19,0,0,0,0,0,0,6,340,6,179,0,346,0,182,0,0,0,0,0,0,0,0,10,336,0,12,178,16,322,23,0,170,44,2,322,23,0,170,31,2,322,23,0,170,45,2,321,24,0,170,32,2,322,23,0,170,32,2,321,24,0,170,32,2,308,37,0,159,56,2,322,23,0,169,32,2,322,23,0,169,32,2,0,346,0,0,182,2,0,346,0,0,182,2,308,37,0,159,42,3,319,24,0,167,32,3,274,28,44,147,32,49
2017-08-04T23:59:59Z,183,348,316,171,348,183,205,133,0,20,0,0,0,0,0,0,8,340,7,179,0,348,0,183,0,0,0,0,0,0,0,0,10,338,0,11,179,17,323,24,0,170,45,2,323,24,0,170,31,2,322,25,0,170,46,2,322,25,0,170,32,2,322,25,0,170,32,2,322,25,0,170,32,2,309,38,0,160,57,2,322,25,0,169,33,2,322,25,0,169,33,2,0,348,0,0,183,2,0,348,0,0,183,2,309,38,0,160,42,3,320,25,0,167,32,3,273,31,44,146,34,49
2017-08-05T23:59:59Z,185,352,320,173,352,185,210,136,0,19,0,0,0,0,0,0,10,342,9,180,0,352,0,185,0,0,0,0,0,0,0,0,10,342,0,11,181,16,326,25,0,172,46,2,326,25,0,172,33,2,325,26,0,172,47,2,325,26,0,172,34,2,325,26,0,172,34,2,325,26,0,172,34,2,312,39,0,162,58,2,325,26,0,171,35,2,325,26,0,171,35,2,0,352,0,0,185,2,0,352,0,0,185,2,312,39,0,162,44,3,323,26,0,169,34,3,274,32,46,147,35,50
2017-08-06T23:59:59Z,184,351,318,172,351,184,198,130,0,19,0,0,0,0,0,0,8,343,7,180,0,351,0,184,0,0,0,0,0,0,0,0,10,341,0,11,180,16,326,24,0,171,45,2,326,24,0,171,32,2,326,24,0,171,45,2,326,24,0,171,32,2,326,24,0,171,32,2,326,24,0,171,32,2,313,37,0,161,56,2,325,25,0,170,34,2,325,25,0,170,34,2,0,351,0,0,184,2,0,351,0,0,184,2,312,38,0,161,43,3,324,24,0,168,32,3,278,29,44,148,32,49
2017-08-07T23:59:59Z,189,357,322,175,357,189,205,135,0,21,0,0,0,0,0,0,8,349,7,185,0,357,0,189,0,0,0,0,0,0,0,0,10,347,0,12,185,18,329,27,0,176,49,2,329,27,0,176,35,2,328,28,0,176,50,2,328,28,0,176,36,2,328,28,0,176,36,2,328,28,0,176,36,2,315,41,0,165,61,2,328,28,0,175,37,2,328,28,0,175,37,2,0,357,0,0,189,2,0,357,0,0,189,2,315,41,0,165,46,3,327,27,0,173,35,3,283,30,44,153,33,52
2017-08-08T23:59:59Z,188,354,321,175,354,188,206,134,0,21,0,0,0,0,0,0,8,346,7,184,0,354,0,188,0,0,0,0,0,0,0,0,10,344,0,12,184,18,326,27,0,175,48,2,326,27,0,175,34,2,325,28,0,175,49,2,325,28,0,175,35,2,326,27,0,175,35,2,326,27,0,175,35,2,312,41,0,164,60,2,326,27,0,174,35,2,326,27,0,174,35,2,0,354,0,0,188,2,0,354,0,0,188,2,312,41,0,164,45,3,324,27,0,172,34,3,280,30,44,152,33,51
2017-08-09T23:59:59Z,188,353,320,174,353,188,202,135,0,21,0,0,0,0,0,0,7,346,7,185,0,353,0,188,0,0,0,0,0,0,0,0,10,343,0,11,184,18,328,24,0,176,47,2,328,24,0,176,33,2,327,25,0,176,48,2,328,24,0,176,33,2,327,25,0,176,34,2,327,25,0,176,34,2,314,38,0,166,59,2,327,25,0,175,35,2,327,25,0,175,35,2,0,353,0,0,188,2,0,353,0,0,188,2,314,38,0,166,44,3,325,25,0,173,34,3,280,29,44,152,33,51
2017-08-10T23:59:59Z,189,358,325,176,358,189,202,134,0,21,0,0,0,0,0,0,8,350,7,185,0,358,0,189,0,0,0,0,0,0,0,0,10,348,0,12,185,18,330,27,0,176,49,2,330,27,0,176,35,2,329,28,0,176,50,2,329,28,0,176,36,2,330,27,0,176,36,2,329,28,0,176,36,2,316,41,0,165,61,2,330,27,0,175,36,2,330,27,0,175,36,2,0,358,0,0,189,2,0,358,0,0,189,2,316,41,0,165,46,3,327,28,0,173,36,3,284,30,44,153,33,52
2017-08-11T23:59:59Z,186,348,316,173,348,186,202,137,0,21,0,0,0,0,0,0,10,338,8,181,0,348,0,186,0,0,0,0,0,0,0,0,10,338,0,12,182,18,322,25,0,172,50,2,322,25,0,172,36,2,322,25,0,172,50,2,322,25,0,172,36,2,322,25,0,172,36,2,322,25,0,172,36,2,308,39,0,161,61,2,321,26,0,171,38,2,321,26,0,171,38,2,0,348,0,0,186,2,0,348,0,0,186,2,307,40,0,161,47,3,320,25,0,169,36,3,276,30,42,150,34,51
2017-08-12T23:59:59Z,186,346,312,170,346,186,198,132,0,22,0,0,0,0,0,0,10,336,8,182,0,346,0,186,0,0,0,0,0,0,0,0,10,336,0,11,182,19,321,25,0,173,49,2,321,25,0,173,34,2,321,25,0,173,49,2,321,25,0,173,34,2,321,25,0,173,34,2,321,25,0,173,34,2,307,39,0,163,60,2,320,26,0,172,36,2,320,26,0,172,36,2,0,346,0,0,186,2,0,346,0,0,186,2,306,40,0,163,45,3,318,26,0,170,35,3,273,31,42,150,34,51
2017-08-13T23:59:59Z,187,351,317,171,351,187,203,132,0,23,0,0,0,0,0,0,10,341,8,183,0,351,0,187,0,0,0,0,0,0,0,0,10,341,0,12,183,20,324,27,0,175,51,2,324,27,0,175,35,2,323,28,0,175,52,2,323,28,0,175,36,2,323,28,0,175,36,2,323,28,0,175,36,2,309,42,0,164,63,2,323,28,0,174,37,2,323,28,0,174,37,2,0,351,0,0,187,2,0,351,0,0,187,2,309,42,0,164,46,3,321,28,0,172,36,3,278,31,42,151,34,53
2017-08-14T23:59:59Z,189,356,319,172,356,189,202,132,0,21,0,0,0,0,0,0,9,347,7,185,0,356,0,189,0,0,0,0,0,0,0,0,10,346,0,12,185,19,329,27,0,177,49,2,331,25,0,177,33,2,329,27,0,177,50,2,330,26,0,177,34,2,330,26,0,177,34,2,331,25,0,177,34,2,314,42,0,166,61,2,331,25,0,176,34,2,331,25,0,176,34,2,0,356,0,0,189,2,0,356,0,0,189,2,314,42,0,166,45,3,328,26,0,174,34,3,282,32,42,153,35,50
2017-08-15T23:59:59Z,187,350,313,169,350,187,202,131,0,21,0,0,0,0,0,0,7,343,6,184,0,350,0,187,0,0,0,0,0,0,0,0,10,340,0,12,183,18,325,24,0,176,46,2,327,22,0,176,31,2,324,25,0,176,47,2,326,23,0,176,32,2,327,22,0,176,32,2,326,23,0,176,32,2,310,39,0,165,58,2,326,23,0,175,33,2,326,23,0,175,33,2,0,350,0,0,187,2,0,350,0,0,187,2,310,39,0,165,43,3,324,23,0,173,32,3,282,29,39,153,33,49